TimeCDT,TemperatureF,Dew PointF,Humidity,Sea Level PressureIn,VisibilityMPH,Wind Direction,Wind SpeedMPH,Gust SpeedMPH,PrecipitationIn,Events,Conditions,WindDirDegrees,DateUTC
12:15 AM,75.7,71.4,86,29.82,10.0,Calm,Calm,-,N/A,,Clear,0,2013-09-01 05:15:00
12:35 AM,74.1,70.9,90,29.82,7.0,Calm,Calm,-,N/A,,Clear,0,2013-09-01 05:35:00
12:55 AM,74.3,71.2,90,29.82,7.0,Calm,Calm,-,N/A,,Clear,0,2013-09-01 05:55:00
1:15 AM,74.1,71.2,91,29.82,7.0,Calm,Calm,-,N/A,,Clear,0,2013-09-01 06:15:00
1:35 AM,74.5,71.6,91,29.81,7.0,Calm,Calm,-,N/A,,Clear,0,2013-09-01 06:35:00
1:55 AM,74.1,71.2,91,29.81,7.0,Calm,Calm,-,N/A,,Clear,0,2013-09-01 06:55:00
2:15 AM,74.3,71.4,91,29.82,5.0,Calm,Calm,-,N/A,,Clear,0,2013-09-01 07:15:00
2:35 AM,73.8,70.9,91,29.81,5.0,North,3.5,-,N/A,,Clear,10,2013-09-01 07:35:00
3:15 AM,71.8,69.4,92,29.82,3.0,SE,3.5,-,N/A,,Clear,140,2013-09-01 08:15:00
3:35 AM,71.8,69.4,92,29.83,3.0,Calm,Calm,-,N/A,,Clear,0,2013-09-01 08:35:00
4:15 AM,70.5,68.4,93,29.82,0.2,Calm,Calm,-,N/A,Fog,Fog,0,2013-09-01 09:15:00
4:35 AM,71.2,69.1,93,29.81,1.0,Calm,Calm,-,N/A,,Overcast,0,2013-09-01 09:35:00
5:15 AM,72.5,70.2,92,29.82,1.5,Calm,Calm,-,N/A,,Overcast,0,2013-09-01 10:15:00
5:35 AM,72.1,70.2,93,29.82,0.2,Calm,Calm,-,N/A,Fog,Fog,0,2013-09-01 10:35:00
6:15 AM,72.5,70.3,93,29.82,0.2,Calm,Calm,-,N/A,Fog,Fog,0,2013-09-01 11:15:00
6:35 AM,71.6,69.6,93,29.83,0.2,Calm,Calm,-,N/A,Fog,Fog,0,2013-09-01 11:35:00
7:15 AM,70.9,68.9,93,29.83,0.2,Calm,Calm,-,N/A,Fog,Fog,0,2013-09-01 12:15:00
7:35 AM,71.1,69.3,94,29.84,0.5,Calm,Calm,-,N/A,Fog,Fog,0,2013-09-01 12:35:00
8:15 AM,72.5,70.5,93,29.85,1.0,Calm,Calm,-,N/A,,Overcast,0,2013-09-01 13:15:00
8:35 AM,74.3,72.5,94,29.83,3.0,SW,3.5,-,N/A,,Scattered Clouds,230,2013-09-01 13:35:00
9:15 AM,76.6,72.7,87,29.83,10.0,WSW,3.5,-,N/A,,Clear,250,2013-09-01 14:15:00
9:35 AM,77.7,73.6,87,29.83,10.0,SW,3.5,-,N/A,,Clear,230,2013-09-01 14:35:00
10:15 AM,80.8,72.7,76,29.83,10.0,WSW,4.6,-,N/A,,Clear,250,2013-09-01 15:15:00
10:35 AM,81.3,72.1,74,29.83,10.0,West,4.6,-,N/A,,Clear,270,2013-09-01 15:35:00
11:15 AM,82.4,72.1,71,29.83,10.0,NW,3.5,-,N/A,,Clear,320,2013-09-01 16:15:00
11:35 AM,82.4,72.5,72,29.85,10.0,WNW,4.6,-,N/A,,Clear,290,2013-09-01 16:35:00
12:15 PM,83.5,72.5,69,29.86,10.0,WNW,4.6,-,N/A,,Clear,300,2013-09-01 17:15:00
12:35 PM,84.6,72.9,68,29.85,10.0,NW,6.9,-,N/A,,Clear,310,2013-09-01 17:35:00
12:55 PM,84.2,72.9,69,29.85,10.0,NW,3.5,-,N/A,,Scattered Clouds,310,2013-09-01 17:55:00
1:15 PM,84.6,72.5,67,29.85,10.0,Calm,Calm,-,N/A,,Scattered Clouds,0,2013-09-01 18:15:00
1:35 PM,86.0,72.5,64,29.84,10.0,WNW,6.9,-,N/A,,Scattered Clouds,300,2013-09-01 18:35:00
1:55 PM,86.7,70.7,59,29.83,10.0,West,6.9,-,N/A,,Clear,270,2013-09-01 18:55:00
2:15 PM,87.1,70.3,57,29.83,10.0,WNW,5.8,-,N/A,,Scattered Clouds,290,2013-09-01 19:15:00
2:35 PM,87.4,69.8,56,29.83,10.0,NNW,3.5,-,N/A,,Scattered Clouds,330,2013-09-01 19:35:00
2:55 PM,86.9,65.5,49,29.83,10.0,NW,5.8,-,N/A,,Scattered Clouds,320,2013-09-01 19:55:00
3:15 PM,87.4,63.7,45,29.82,10.0,WNW,6.9,-,N/A,,Clear,300,2013-09-01 20:15:00
3:35 PM,88.7,64.6,45,29.82,10.0,WNW,6.9,-,N/A,,Clear,300,2013-09-01 20:35:00
3:55 PM,88.2,64.6,45,29.82,10.0,NW,6.9,-,N/A,,Clear,310,2013-09-01 20:55:00
4:15 PM,88.3,64.6,45,29.82,10.0,NNW,5.8,-,N/A,,Clear,330,2013-09-01 21:15:00
4:35 PM,88.7,63.5,43,29.82,10.0,Calm,Calm,-,N/A,,Clear,0,2013-09-01 21:35:00
4:55 PM,88.7,63.0,42,29.82,10.0,WSW,4.6,-,N/A,,Clear,250,2013-09-01 21:55:00
5:15 PM,88.9,63.9,43,29.82,10.0,West,6.9,-,N/A,,Clear,260,2013-09-01 22:15:00
5:35 PM,88.7,63.7,43,29.81,10.0,West,5.8,-,N/A,,Clear,260,2013-09-01 22:35:00
5:55 PM,88.2,63.3,43,29.81,10.0,WNW,6.9,-,N/A,,Clear,290,2013-09-01 22:55:00
6:15 PM,87.1,64.6,47,29.81,10.0,NW,4.6,-,N/A,,Clear,310,2013-09-01 23:15:00
6:35 PM,85.3,66.2,53,29.82,10.0,NW,3.5,-,N/A,,Clear,310,2013-09-01 23:35:00
6:55 PM,85.1,65.8,52,29.82,10.0,Calm,Calm,-,N/A,,Clear,0,2013-09-01 23:55:00
7:15 PM,84.0,65.5,54,29.82,10.0,Calm,Calm,-,N/A,,Clear,0,2013-09-02 00:15:00
7:35 PM,82.0,66.2,59,29.83,10.0,WNW,3.5,-,N/A,,Clear,300,2013-09-02 00:35:00
7:55 PM,80.6,65.7,60,29.83,10.0,WNW,3.5,-,N/A,,Clear,300,2013-09-02 00:55:00
8:15 PM,80.1,65.5,61,29.84,10.0,WNW,3.5,-,N/A,,Clear,300,2013-09-02 01:15:00
8:35 PM,79.0,65.7,64,29.85,10.0,Calm,Calm,-,N/A,,Clear,0,2013-09-02 01:35:00
8:55 PM,77.4,66.2,68,29.85,10.0,West,3.5,-,N/A,,Clear,260,2013-09-02 01:55:00
9:15 PM,76.6,65.7,69,29.86,10.0,West,3.5,-,N/A,,Clear,260,2013-09-02 02:15:00
9:35 PM,78.6,65.3,64,29.87,10.0,West,3.5,-,N/A,,Clear,270,2013-09-02 02:35:00
9:55 PM,76.3,65.5,69,29.88,10.0,Calm,Calm,-,N/A,,Clear,0,2013-09-02 02:55:00
10:15 PM,76.1,64.9,68,29.88,10.0,NW,3.5,-,N/A,,Clear,310,2013-09-02 03:15:00
10:35 PM,74.1,64.8,72,29.88,10.0,NW,3.5,-,N/A,,Clear,310,2013-09-02 03:35:00
10:55 PM,73.4,64.2,73,29.89,10.0,NW,3.5,-,N/A,,Clear,320,2013-09-02 03:55:00
11:15 PM,72.7,63.5,73,29.89,10.0,NW,4.6,-,N/A,,Clear,320,2013-09-02 04:15:00
11:35 PM,72.3,60.1,65,29.90,10.0,NW,5.8,-,N/A,,Clear,320,2013-09-02 04:35:00
11:55 PM,71.4,59.9,67,29.90,10.0,NNW,6.9,-,N/A,,Clear,330,2013-09-02 04:55:00